Location: Christchurch
(43.5330°S, 172.6330°E)
Time: 01:36:50
(UTC+13:00)

Helios 1B rocket - Pass Details

Date: 24 January 2019
Orbit: 575 x 585 km, 98.2° (Epoch: 23 February)

Event Time Altitude Azimuth Distance (km) Brightness Sun altitude
Exits shadow 23:01:08 36° 30° (NNE) 940 2.9 -17.3°
Maximum altitude 23:02:45 73° 105° (ESE) 619 2.4 -17.5°
Drops below altitude 10° 23:06:55 10° 189° (S) 1,929 6.0 -17.9°
Sets 23:09:06 0° 191° (S) 2,839 7.1 -18.2°
